GEFSSE_con_probscp_000.txt.gz
Probability
3 3 5 11 15 11 5 4 4 4 4 4 3 4 5 6 6 4 3 3 3 3 3 3 3 3 3 3 3 3 3 3 3 3 3 3 3 3 3 3 3 2 1
2 3 4 10 15 11 7 5 4 3 3 3 3 4 4 5 4 4 3 3 3 3 3 3 3 3 3 3 3 3 3 3 3 3 3 3 3 3 3 3 3 3 2
1 2 5 10 12 11 8 6 4 4 4 4 4 5 5 4 3 3 3 3 3 3 3 3 3 3 3 3 3 3 3 3 3 3 3 3 3 3 3 3 4 4 4
0 2 5 9 10 10 8 5 4 5 7 7 6 6 5 4 3 3 3 3 3 3 3 3 3 3 3 3 3 3 3 3 3 3 3 3 3 3 3 4 4 4 5
2 3 5 8 9 9 9 6 4 5 7 8 7 6 4 3 3 3 3 3 3 3 3 3 3 3 3 3 3 3 3 3 3 3 3 3 3 3 3 3 4 5 7
3 3 4 5 6 7 10 12 9 6 5 6 8 8 7 5 4 4 3 3 3 3 3 3 3 3 3 3 3 3 3 4 4 4 4 4 4 3 3 3 3 6 9
2 2 3 4 4 5 16 29 25 12 7 6 9 12 10 7 6 4 3 3 3 4 4 5 4 4 3 3 3 3 4 5 6 6 6 6 6 6 7 7 6 6 9
1 1 2 3 4 8 26 46 43 27 18 13 12 14 10 6 4 4 3 3 5 9 14 17 14 8 7 7 6 4 3 4 5 5 5 8 13 22 28 31 29 26 22
3 3 3 3 3 10 34 59 61 52 45 33 23 18 13 10 10 8 6 8 14 18 22 27 22 10 9 10 7 4 2 1 1 1 2 6 16 31 48 62 69 66 60
5 4 3 3 3 8 27 51 65 71 69 55 35 21 16 17 17 13 11 16 22 18 15 15 12 6 5 5 4 2 1 0 0 0 0 3 10 18 34 59 79 86 87
5 4 3 3 3 5 12 25 40 54 57 46 28 14 11 11 11 10 14 22 21 10 3 1 1 1 0 0 0 0 0 0 0 0 0 1 2 2 9 26 47 64 74
4 3 3 3 3 3 3 5 11 18 20 17 10 4 2 2 2 3 11 20 15 4 0 0 0 0 0 0 0 0 0 0 0 0 0 0 0 0 1 6 16 28 38
3 3 3 3 3 2 2 1 1 1 1 1 1 0 0 0 0 0 5 8 6 1 0 0 0 0 0 0 0 0 0 0 0 0 0 0 0 0 0 1 4 9 13
3 3 3 3 2 1 1 0 0 0 0 0 0 0 0 0 0 0 0 0 0 0 0 0 0 0 0 0 0 0 0 0 0 0 0 0 0 0 0 0 1 3 5
3 3 3 3 2 1 0 0 0 0 0 0 0 0 0 0 0 0 0 0 0 0 0 0 0 0 0 0 0 0 0 0 0 0 0 0 0 0 0 0 0 1 2
9 6 3 3 3 2 1 0 0 0 0 0 0 0 0 0 0 0 0 0 0 0 0 0 0 0 0 0 0 0 0 0 0 0 0 0 0 0 0 0 0 0 1
18 10 4 3 3 3 2 1 0 0 0 0 0 0 0 0 0 0 0 0 0 0 0 0 0 0 0 0 0 0 0 0 0 0 0 0 0 0 0 0 0 2 4
20 12 5 3 3 3 2 1 0 0 0 0 0 0 0 0 0 0 0 0 0 0 0 0 0 0 0 0 0 0 0 0 0 0 0 0 0 0 0 0 1 5 10
15 9 4 2 2 2 1 0 0 0 0 0 0 0 0 0 0 0 0 0 0 0 0 0 0 0 0 0 0 0 0 0 0 0 0 0 0 0 0 0 1 4 8
7 5 2 1 0 0 0 0 0 0 0 0 0 0 0 0 0 0 0 0 0 0 0 0 0 0 0 0 0 0 0 0 0 0 0 0 0 0 0 0 0 1 2
1 1 1 0 0 0 0 0 0 0 0 0 0 0 0 0 0 0 1 1 1 1 1 1 0 0 0 0 0 0 0 0 0 0 0 0 0 0 0 0 0 0 0
0 0 0 0 0 0 0 0 0 0 0 0 0 0 0 0 0 0 1 2 2 2 2 1 0 0 0 0 0 0 0 0 0 0 0 0 0 0 0 0 0 0 0
0 0 0 0 0 0 0 0 0 0 0 0 0 0 0 0 0 0 1 1 1 1 1 1 0 0 0 0 0 0 0 0 0 0 0 0 0 0 0 0 0 0 0
0 0 0 0 0 0 0 0 0 0 0 0 0 0 0 0 0 0 0 0 0 0 0 0 0 0 0 0 0 0 0 0 0 0 0 0 0 0 0 0 0 0 0
0 0 0 0 0 0 0 0 0 0 0 0 0 0 0 0 0 0 0 0 0 0 0 0 0 0 0 0 0 0 0 0 0 0 0 0 0 0 0 0 0 0 0
0 0 0 0 0 0 0 0 0 0 0 0 0 0 0 0 0 0 0 0 0 0 0 0 0 0 0 0 0 0 0 0 0 0 0 0 0 0 0 0 0 0 0

GEFSSE_con_probscp_006.txt.gz
Probability
1 0 0 0 0 0 0 1 3 10 27 44 43 27 11 2 0 0 0 0 0 0 0 0 0 0 0 0 0 0 0 0 0 0 0 0 0 0 0 0 0 0 0
3 1 0 0 0 0 0 1 3 7 19 35 39 28 13 3 0 0 0 0 0 0 0 0 0 0 0 0 0 0 0 0 0 0 0 0 0 0 0 0 0 0 0
4 2 0 0 0 0 0 0 1 4 8 15 20 18 10 3 0 0 0 0 0 0 0 0 0 0 0 0 0 0 0 0 0 0 0 0 0 0 0 0 0 0 0
3 1 0 0 0 0 0 0 1 2 3 3 4 4 3 1 0 0 0 0 0 0 0 0 0 0 0 0 0 0 0 0 0 0 0 0 0 0 0 0 0 0 0
2 1 0 0 0 0 0 0 1 3 4 4 2 2 2 1 0 0 1 3 3 3 3 2 1 0 0 0 0 0 0 0 0 0 0 0 0 0 0 0 0 0 0
1 0 0 0 0 1 2 1 2 5 8 8 6 6 7 3 0 2 5 10 14 16 17 16 10 3 1 0 0 0 0 0 0 0 0 0 0 0 0 0 0 0 0
0 0 0 1 3 5 5 3 4 7 10 11 9 9 8 4 1 2 8 17 26 29 30 28 18 6 1 0 0 0 0 0 0 0 0 0 0 0 0 0 0 0 1
0 0 0 3 8 10 6 4 5 6 7 7 7 7 6 4 2 3 7 17 24 25 22 18 12 4 1 0 0 0 0 0 0 0 0 0 0 0 0 0 0 0 1
0 0 1 4 10 11 5 4 9 16 20 18 12 8 6 6 6 7 8 10 11 8 5 3 2 1 0 0 0 0 0 0 0 0 0 0 0 0 0 0 0 0 1
0 1 3 4 5 5 3 4 12 26 37 34 22 12 7 5 7 8 7 5 3 1 0 0 0 0 0 0 0 0 0 0 0 0 0 0 0 0 0 0 0 0 0
1 1 2 3 1 0 0 2 7 18 25 24 19 13 5 2 3 4 4 2 1 0 0 0 0 0 0 0 0 0 0 0 0 0 0 0 0 0 0 0 0 0 0
2 1 1 1 0 0 0 0 1 3 4 5 8 6 2 0 0 1 1 0 0 0 0 0 0 0 0 0 0 0 0 0 0 0 0 0 0 0 0 0 0 0 0
2 1 0 0 0 0 0 0 0 0 0 1 2 1 0 0 0 0 0 0 0 0 0 0 0 0 0 0 0 0 0 0 0 0 0 0 0 0 0 0 0 0 0
1 0 0 0 0 0 0 0 0 0 0 0 0 0 0 0 0 0 0 0 0 0 0 0 0 0 0 0 0 0 0 0 0 0 0 0 0 0 0 0 0 0 0
0 0 0 0 0 0 0 0 0 0 0 0 0 0 0 0 0 0 0 0 0 0 0 0 0 0 0 0 0 0 0 0 0 0 0 0 0 0 0 0 0 0 0
1 1 0 0 0 0 0 0 0 0 0 0 0 0 0 0 0 0 0 0 0 0 0 0 0 0 0 0 0 0 0 0 0 0 0 0 0 0 0 0 0 0 1
6 5 3 1 2 4 4 2 0 0 0 0 0 0 0 0 0 0 0 0 0 0 0 1 1 1 2 2 1 2 4 4 3 1 1 0 0 0 0 0 0 0 1
24 25 21 17 15 15 12 6 1 0 0 0 0 0 0 0 0 0 0 1 1 1 1 2 4 8 12 12 11 11 11 9 5 2 2 1 0 0 0 0 0 0 1
59 59 57 52 43 30 16 6 1 0 0 0 0 0 0 0 0 0 2 6 7 6 9 13 17 22 26 25 20 17 12 7 4 3 2 1 0 0 0 0 0 0 0
88 89 86 78 63 39 16 4 1 0 0 0 0 0 0 0 3 5 11 19 18 15 21 26 27 26 25 20 14 10 6 2 2 2 1 0 0 0 0 0 0 0 0
98 98 94 84 67 45 22 8 2 0 0 0 3 6 5 4 8 14 19 26 26 23 25 27 24 17 11 6 4 1 1 1 1 1 1 0 0 0 0 0 0 0 0
94 93 90 84 70 49 28 13 6 4 2 2 8 13 11 8 11 15 19 21 21 21 22 24 22 14 5 1 0 0 0 0 0 1 2 1 0 0 0 0 0 0 0
86 86 89 88 78 59 37 22 15 12 7 8 13 14 10 7 6 9 11 13 13 15 19 26 25 17 7 1 1 2 1 0 0 0 1 0 0 0 0 0 0 0 0
66 72 80 84 81 69 54 40 27 17 11 12 12 8 5 3 2 4 6 8 10 12 17 18 18 15 7 1 2 3 2 1 1 0 0 0 0 0 0 0 0 0 0
36 43 54 63 67 62 54 45 30 16 9 8 6 4 2 1 0 1 2 4 6 8 8 7 7 6 3 0 1 2 2 2 1 0 0 0 0 0 0 0 0 0 0
15 19 29 42 49 44 37 31 22 12 6 3 1 1 0 0 0 0 0 1 2 2 2 2 2 1 0 0 0 0 1 2 1 0 0 0 0 0 1 1 1 0 0

GEFSSE_con_probscp_012.txt.gz
Probability
41 38 32 19 6 3 1 0 0 0 0 0 0 0 0 0 0 0 0 0 0 0 0 0 0 0 0 0 0 0 0 0 0 0 0 0 0 0 0 0 0 0 0
57 47 36 20 6 3 2 1 0 0 0 0 1 1 0 0 0 0 0 0 0 0 0 0 0 0 0 0 0 0 0 0 0 0 0 0 0 0 0 0 0 0 0
58 45 28 13 4 2 2 2 1 1 0 0 2 3 2 1 1 1 0 0 0 0 0 0 0 0 0 0 0 0 0 0 0 0 0 0 0 0 0 0 0 0 0
48 33 15 5 2 2 3 2 2 2 1 0 2 5 4 2 2 2 1 1 1 1 1 1 1 1 0 0 0 0 0 0 1 2 1 0 1 1 0 0 1 1 0
41 24 8 2 1 2 2 2 3 3 2 1 2 3 4 5 5 4 3 5 6 6 6 5 5 4 1 0 0 0 0 0 1 2 1 1 3 3 1 0 1 1 1
25 14 4 1 1 1 1 1 3 7 9 7 4 2 5 9 11 8 9 13 17 19 19 18 14 10 5 2 1 0 0 0 0 1 0 1 2 3 1 0 1 1 1
14 7 1 0 0 0 0 1 5 13 19 17 10 6 7 12 16 20 24 29 35 37 35 27 20 12 6 3 2 0 0 0 0 0 0 0 1 1 0 0 0 0 1
23 11 2 0 0 0 2 4 6 13 19 17 12 8 7 12 22 33 40 44 46 42 32 20 11 6 3 2 1 0 0 0 0 0 0 0 0 0 0 0 0 0 0
36 22 7 2 0 1 2 4 4 7 10 9 6 5 7 16 29 36 38 38 35 26 15 6 2 0 0 0 0 0 0 0 0 0 0 0 0 0 0 0 0 0 0
43 32 15 4 1 1 1 1 1 2 3 2 1 2 6 17 24 23 20 18 13 8 4 1 0 0 0 0 0 0 0 0 0 0 0 0 0 0 0 0 0 0 0
42 32 19 9 3 0 0 0 0 0 0 0 0 1 4 8 9 7 5 4 2 1 0 0 0 0 0 0 0 0 0 0 0 0 0 0 0 0 0 0 0 0 0
32 22 14 10 4 0 0 0 0 0 0 1 2 2 2 3 3 2 0 0 0 0 0 0 0 0 0 0 0 0 0 0 0 0 0 0 0 0 0 0 0 0 0
18 11 7 9 10 8 4 0 0 0 2 7 9 6 3 4 6 5 2 0 0 0 0 0 0 0 0 0 0 0 0 0 0 0 0 0 0 0 0 0 0 0 0
10 11 17 27 35 34 22 9 3 3 7 15 16 8 2 2 4 5 3 1 0 0 0 0 0 0 0 0 0 0 0 0 0 0 0 1 3 3 2 0 0 0 0
20 31 47 62 67 59 42 22 8 7 11 16 13 5 0 0 2 2 1 0 0 0 2 2 1 0 0 0 0 0 0 0 1 1 3 9 16 17 13 10 8 6 3
49 65 78 82 76 58 40 23 10 6 8 9 6 2 0 0 1 1 2 1 1 3 5 4 3 4 4 3 7 11 13 13 15 18 18 23 32 36 38 38 34 25 18
77 83 81 74 69 58 41 26 15 11 10 9 5 2 0 0 2 7 14 15 13 13 13 15 20 23 21 21 28 35 37 34 35 40 40 36 35 43 57 67 66 56 44
73 70 60 58 70 75 65 49 38 32 28 21 13 8 3 1 3 18 37 45 42 38 36 40 50 53 49 48 49 49 46 42 39 42 44 37 29 36 56 74 82 77 69
48 42 41 56 76 87 84 76 69 61 50 40 36 31 20 12 15 34 59 72 71 68 64 63 67 71 69 62 51 43 37 32 28 27 28 25 21 28 43 61 77 85 84
36 32 41 64 83 91 92 90 89 82 70 62 63 60 48 39 42 55 70 79 81 81 77 72 71 72 71 61 44 32 28 24 20 19 17 13 14 20 28 41 61 78 84
49 48 58 77 91 97 98 97 96 91 85 80 80 78 70 62 60 63 69 74 76 76 74 72 68 63 58 51 37 25 19 16 14 14 11 7 7 10 16 24 36 50 60
73 74 81 90 96 97 98 98 98 96 91 87 85 78 68 59 51 48 55 61 61 59 59 58 52 43 35 33 28 18 10 7 8 7 4 2 2 4 7 10 14 23 30
77 81 85 87 88 87 88 90 92 91 86 81 75 63 48 37 31 32 36 41 41 36 33 32 28 21 17 16 16 13 7 3 2 1 0 0 0 1 1 2 5 11 16
54 60 65 66 64 62 62 64 66 65 62 57 50 39 27 21 20 21 25 28 27 20 15 13 11 9 7 6 7 7 6 2 0 0 0 0 0 0 0 1 3 7 11
24 30 37 39 35 30 28 29 30 28 28 26 22 17 14 13 14 15 19 22 19 14 11 9 6 4 3 1 1 2 2 1 0 0 0 0 0 0 0 1 3 6 7
8 13 20 22 18 13 11 11 9 9 9 9 6 5 7 9 10 12 15 17 13 10 9 8 5 2 1 0 0 0 0 0 0 0 0 0 0 0 0 1 3 5 6

GEFSSE_con_probscp_018.txt.gz
Probability
1 1 8 21 26 25 23 23 20 14 10 9 7 8 12 15 20 30 37 32 19 7 2 0 0 0 0 0 0 0 0 0 0 0 0 0 0 0 0 0 0 0 0
2 2 7 17 23 21 18 18 16 12 9 8 7 6 8 9 11 16 20 19 12 4 1 0 0 0 0 0 0 0 0 0 0 0 0 0 0 0 0 0 0 0 0
2 1 3 10 15 14 11 10 8 7 6 6 4 3 2 3 3 4 4 5 4 1 0 0 0 0 0 0 0 0 0 0 0 0 0 0 1 1 1 1 1 1 0
1 0 1 3 5 6 5 5 3 2 3 3 2 0 0 0 1 1 0 0 0 0 0 0 0 0 0 0 0 0 0 0 1 1 1 1 3 5 5 5 6 6 4
0 0 0 0 1 2 4 4 2 1 1 1 0 0 0 0 0 0 0 0 0 0 0 0 0 0 0 0 0 0 0 0 1 1 1 3 7 10 10 10 12 13 13
0 0 0 0 1 5 9 9 6 4 2 1 0 0 0 0 0 0 0 0 0 0 0 0 0 1 1 0 0 0 0 0 0 0 1 4 9 13 14 11 11 15 19
0 0 0 1 5 12 17 17 13 8 6 3 1 1 0 0 0 0 0 0 0 0 0 0 0 1 1 0 0 0 0 1 0 0 1 3 7 12 13 8 7 10 13
1 1 1 2 8 17 21 18 14 11 8 5 3 1 0 0 0 0 0 0 0 0 0 0 0 1 1 0 0 0 0 0 0 0 1 2 4 7 8 6 4 4 5
4 3 2 2 6 13 14 11 9 8 6 4 3 2 1 0 0 0 0 0 0 0 0 0 0 0 0 0 0 0 0 0 0 0 1 1 1 2 3 2 2 1 1
5 4 2 1 2 4 4 3 3 4 4 3 4 4 3 1 0 0 0 0 0 0 0 0 0 0 0 0 0 0 0 0 0 0 0 0 0 0 0 1 1 0 0
4 2 1 0 0 0 0 0 0 1 2 3 4 5 4 1 0 0 0 0 0 0 0 0 0 0 0 0 0 0 0 0 0 0 0 0 0 0 0 0 0 0 0
5 3 0 0 0 0 0 0 0 0 1 1 2 2 2 1 0 0 0 0 0 0 0 0 0 0 0 0 0 0 0 0 0 0 0 0 0 0 0 0 0 0 0
10 6 2 0 0 0 0 0 0 0 0 0 0 0 0 0 0 0 0 0 0 0 0 0 0 0 0 0 0 0 0 0 0 0 0 0 1 1 1 1 1 0 0
10 7 2 0 0 0 0 0 0 0 0 0 0 0 0 0 0 0 0 0 0 0 0 0 0 0 0 0 0 0 0 0 0 0 0 1 3 6 8 8 8 6 5
6 4 2 0 0 0 0 0 0 0 0 0 0 0 0 0 0 0 0 0 0 0 0 0 0 0 0 0 0 0 0 0 0 0 0 1 7 15 20 21 22 22 21
4 3 1 1 0 0 0 0 0 0 0 0 0 0 0 0 0 0 0 0 0 0 0 0 0 0 0 0 0 0 0 0 0 0 0 1 8 19 28 33 39 43 44
3 2 1 1 1 1 0 0 0 1 0 0 0 0 0 0 0 0 0 0 0 0 0 0 0 0 0 0 0 0 0 0 0 0 0 0 3 11 22 34 47 58 62
4 3 1 1 2 1 0 0 0 0 0 0 0 0 0 0 0 0 0 0 0 0 0 0 0 0 0 0 0 0 0 0 0 0 0 0 0 2 9 21 37 55 65
6 4 2 3 4 2 0 0 0 0 0 0 0 0 0 0 0 0 0 0 0 0 0 0 0 0 0 0 0 0 0 0 0 0 0 0 0 0 2 7 17 35 49
6 5 4 4 4 3 1 0 0 0 0 0 0 0 0 0 0 0 0 0 0 0 0 0 0 0 0 0 0 0 0 0 0 0 0 0 0 0 0 1 4 14 25
5 5 4 3 2 1 0 0 0 0 0 0 0 0 0 0 0 0 0 0 0 0 0 0 0 0 0 0 0 0 0 0 0 0 0 0 0 0 0 0 0 3 7
4 3 2 1 0 0 0 0 0 0 0 0 0 0 0 0 0 0 0 0 0 0 0 0 0 0 0 0 0 0 0 0 0 0 0 0 0 0 0 0 0 0 1
1 1 0 0 0 0 0 0 0 0 0 0 0 0 0 0 0 0 0 0 0 0 0 0 0 0 0 0 0 0 0 0 0 0 0 0 0 0 0 0 0 0 0
0 0 0 0 0 0 0 0 0 0 0 0 0 0 0 0 0 0 0 0 0 0 0 0 0 0 0 0 0 0 0 0 0 0 0 0 0 0 0 0 0 0 0
0 0 0 0 0 0 0 0 0 0 0 0 0 0 0 0 0 0 0 0 0 0 0 0 0 0 0 0 0 0 0 0 0 0 0 0 0 0 0 0 0 0 0
0 0 0 0 0 0 0 0 0 0 0 0 0 0 0 0 0 0 0 0 0 0 0 0 0 0 0 0 0 0 0 0 0 0 0 0 0 0 0 0 0 0 0

GEFSSE_con_probscp_024.txt.gz
Probability
0 0 0 1 16 44 53 37 22 17 21 31 43 50 48 38 21 7 3 3 2 1 0 0 0 0 0 0 0 0 0 0 0 0 0 0 0 0 0 0 0 0 0
0 0 0 1 12 32 40 28 16 11 12 16 23 29 28 21 11 4 2 2 1 0 0 0 0 0 0 0 0 0 0 0 0 0 0 0 0 0 0 0 0 0 0
0 0 0 0 5 15 21 15 8 4 3 3 5 7 7 5 2 1 1 1 0 0 0 0 0 0 0 0 0 0 0 0 0 0 0 0 0 0 0 0 0 0 0
0 0 0 0 1 5 7 6 3 1 0 0 0 0 0 0 0 0 0 0 0 0 0 0 0 0 0 0 0 0 0 0 0 0 0 0 0 0 0 0 0 0 0
0 0 0 0 0 2 3 2 1 0 0 0 0 0 0 0 0 0 0 0 0 0 0 0 0 0 0 0 1 1 1 0 0 0 1 1 1 2 2 2 2 1 1
0 0 0 0 0 2 4 3 2 0 0 0 0 0 0 0 0 0 0 0 0 0 0 0 0 1 1 2 3 2 1 0 0 0 1 2 3 5 5 4 5 4 4
0 0 0 0 1 3 5 5 3 1 0 0 0 0 0 0 0 0 0 0 0 0 0 0 0 1 2 4 3 1 1 0 0 0 0 2 4 7 6 5 5 6 7
0 0 0 0 1 2 4 5 4 2 1 1 1 0 0 0 0 0 0 0 0 0 0 0 0 1 1 2 1 0 0 0 0 0 0 1 3 5 5 3 3 4 5
0 0 0 0 1 2 4 5 4 4 3 3 2 1 0 0 0 0 1 1 1 1 0 0 0 0 0 0 0 0 0 0 0 0 0 0 1 2 3 1 1 2 2
0 1 1 1 1 2 4 5 5 5 4 4 3 1 0 0 0 0 1 2 2 1 0 0 0 0 0 0 0 0 0 0 0 0 0 0 0 1 1 0 0 1 1
1 2 2 1 0 1 1 3 4 3 2 2 2 1 0 0 0 0 1 1 1 1 0 0 0 0 0 0 0 0 0 0 0 0 0 0 0 0 0 0 0 0 0
3 2 1 0 0 0 0 1 1 1 0 0 0 0 0 0 0 0 0 0 0 0 0 0 0 0 0 0 0 0 0 0 0 0 0 1 2 2 1 2 2 2 1
2 2 1 0 0 0 0 0 0 0 0 0 0 0 0 0 0 0 0 0 0 0 0 0 0 0 0 0 0 0 0 0 0 0 0 3 6 5 5 7 11 13 12
1 1 0 0 0 0 0 0 0 0 0 0 0 0 0 0 0 0 0 0 0 0 0 0 0 0 0 0 0 0 0 0 0 0 0 3 6 8 10 15 23 28 29
0 0 0 0 0 0 0 0 0 0 0 0 0 0 0 0 0 0 0 0 0 0 0 0 0 0 0 0 0 0 0 0 0 0 0 1 4 7 12 18 26 31 33
0 0 0 0 0 0 0 0 0 0 0 0 0 0 0 0 0 0 0 0 0 0 0 0 0 0 0 0 0 0 0 0 0 0 0 0 1 3 7 12 18 22 22
1 0 0 0 0 0 0 0 0 0 0 0 0 0 0 0 0 0 0 0 0 0 0 0 0 0 0 0 0 0 0 0 0 0 0 0 0 1 3 5 8 11 12
1 0 0 0 0 0 0 0 0 0 0 0 0 0 0 0 0 0 0 0 0 0 0 0 0 0 0 0 0 0 0 0 0 0 0 0 0 0 1 1 3 4 5
1 0 0 0 0 0 0 0 0 0 0 0 0 0 0 0 0 0 0 0 0 0 0 0 0 0 0 0 0 0 0 0 0 0 0 0 0 0 0 0 1 1 1
0 0 0 0 0 0 0 0 0 0 0 0 0 0 0 0 0 0 0 0 0 0 0 0 0 0 0 0 0 0 0 0 0 0 0 0 0 0 0 0 0 0 0
0 0 0 0 0 0 0 0 0 0 0 0 0 0 0 0 0 0 0 0 0 0 0 0 0 0 0 0 0 0 0 0 0 0 0 0 0 0 0 0 0 0 0
0 0 0 0 0 0 0 0 0 0 0 0 0 0 0 0 0 0 0 0 0 0 0 0 0 0 0 0 0 0 0 0 0 0 0 0 0 0 0 0 0 0 0
0 0 0 0 0 0 0 0 0 0 0 0 0 0 0 0 0 0 0 0 0 0 0 0 0 0 0 0 0 0 0 0 0 0 0 0 0 0 0 0 0 0 0
0 0 0 0 0 0 0 0 0 0 0 0 0 0 0 0 0 0 0 0 0 0 0 0 0 0 0 0 0 0 0 0 0 0 0 0 0 0 0 0 0 0 0
0 0 0 0 0 0 0 0 0 0 0 0 0 0 0 0 0 0 0 0 0 0 0 0 0 0 0 0 0 0 0 0 0 0 0 0 0 0 0 0 0 0 0
0 0 0 0 0 0 0 0 0 0 0 0 0 0 0 0 0 0 0 0 0 0 0 0 0 0 0 0 0 0 0 0 0 0 0 0 0 0 0 0 0 0 0

GEFSSE_con_probscp_030.txt.gz
Probability
0 0 0 1 3 3 3 4 11 23 33 31 22 14 7 2 2 2 1 0 0 0 0 0 0 0 0 0 0 0 0 0 0 0 0 0 0 0 0 0 0 0 0
0 0 0 1 2 2 2 3 6 13 20 23 18 12 6 2 1 1 0 0 0 0 0 0 0 0 0 0 0 0 0 0 0 0 0 0 0 0 0 0 0 0 0
0 0 0 1 1 1 1 1 1 3 7 10 10 7 3 1 0 0 0 0 0 0 0 0 0 0 0 0 0 0 0 0 0 0 0 0 0 0 0 0 0 0 0
0 0 0 0 0 0 0 0 0 0 1 2 3 2 1 0 0 0 0 0 0 0 0 0 0 0 0 0 0 0 0 0 0 0 0 0 0 0 0 0 0 0 0
0 0 0 0 0 0 0 0 0 0 0 0 0 0 0 0 0 0 0 0 0 0 0 0 0 0 0 0 0 0 0 0 0 0 0 0 1 1 1 0 0 0 0
0 0 0 0 0 0 0 0 0 0 0 0 0 0 0 0 0 0 0 0 0 0 0 0 0 0 0 0 0 0 0 0 0 0 0 1 4 6 3 0 0 1 1
0 0 0 0 0 0 0 0 1 1 0 0 0 0 0 0 0 0 0 0 0 0 0 0 0 0 0 0 0 0 0 0 0 0 0 2 9 12 6 2 3 4 4
0 0 0 0 0 0 0 0 1 1 0 0 0 0 0 0 0 0 0 0 0 0 0 0 0 0 0 0 0 0 0 0 0 0 0 3 11 15 11 8 9 9 7
0 0 0 0 0 0 0 0 1 1 0 0 0 0 0 0 0 0 0 0 0 0 0 1 1 0 0 0 0 0 0 0 0 0 0 4 10 13 12 12 12 10 9
0 0 0 0 0 0 0 0 0 0 0 0 0 0 0 0 0 0 0 0 0 0 0 1 1 0 0 0 0 0 0 0 0 0 0 4 10 11 10 11 10 8 7
1 0 0 0 0 0 0 0 0 0 0 0 0 0 0 0 0 0 0 0 0 0 0 1 1 0 0 0 0 0 0 0 0 0 0 3 8 10 10 11 12 10 8
3 1 0 0 0 0 0 0 0 0 0 0 0 0 0 0 0 0 0 0 0 0 0 0 0 0 0 0 0 0 0 0 0 0 0 2 5 7 10 13 17 18 17
5 2 0 0 0 0 0 0 0 0 0 0 0 0 0 0 0 0 0 0 0 0 0 0 0 0 0 0 0 0 0 0 0 0 0 2 4 6 8 14 19 23 26
5 3 0 0 0 0 0 0 0 0 0 0 0 0 0 0 0 0 0 0 0 0 0 0 0 0 0 0 0 0 0 0 0 0 0 2 5 6 6 10 16 20 23
3 2 0 0 1 1 0 0 0 0 0 0 0 0 0 0 0 0 1 1 1 0 1 1 0 0 0 0 0 0 0 0 0 0 0 2 4 5 4 6 9 11 13
5 3 1 1 2 2 1 0 0 0 0 1 1 0 0 0 0 0 1 2 1 1 1 1 1 1 1 1 1 1 1 1 1 1 1 1 2 2 3 3 4 5 5
13 10 5 3 4 5 3 1 0 0 0 1 1 1 0 0 0 0 1 2 2 1 1 1 1 2 2 2 2 2 3 3 3 2 2 2 2 1 1 2 2 2 2
26 20 12 6 7 8 9 8 5 4 3 2 1 1 2 2 2 2 2 3 3 2 2 2 3 3 4 4 3 3 3 3 3 3 4 4 4 3 2 1 1 1 1
41 34 25 18 16 16 18 17 13 10 7 4 3 3 3 3 3 3 4 4 4 3 3 4 5 5 5 3 2 2 2 2 3 4 4 5 5 5 4 2 1 0 0
55 50 43 36 30 26 24 21 16 12 9 6 4 3 2 1 2 2 3 3 3 3 4 5 6 5 3 2 1 0 1 1 2 3 4 4 4 4 4 3 2 1 1
65 62 57 49 39 30 25 19 14 10 7 4 3 1 0 0 0 1 1 1 1 2 3 3 3 2 1 0 0 0 0 1 1 2 2 2 2 2 2 2 2 2 2
65 63 57 48 37 26 20 14 9 6 4 1 1 0 0 0 0 0 0 0 0 1 1 1 0 0 0 0 0 0 0 0 0 1 1 1 1 1 1 1 1 1 1
53 50 44 37 28 19 13 7 4 2 1 0 0 0 0 0 0 0 0 0 0 0 0 0 0 0 0 0 0 0 0 0 0 0 0 0 0 0 0 0 0 0 0
34 32 28 23 19 14 8 4 1 0 0 0 0 0 0 0 0 0 0 0 0 0 0 0 0 0 0 0 0 0 0 0 0 0 0 0 0 0 0 0 0 0 0
19 18 17 15 13 10 7 4 2 0 0 0 0 0 0 0 0 0 0 0 0 0 0 0 0 0 0 0 0 0 0 0 0 0 0 0 0 0 0 0 0 0 0
11 11 12 12 11 9 6 3 1 0 0 0 0 0 0 0 0 0 0 0 0 0 0 0 0 0 0 0 0 0 0 0 0 0 0 0 0 0 0 0 0 0 0

GEFSSE_con_probscp_036.txt.gz
Probability
16 15 18 19 15 12 7 4 3 3 3 3 3 3 3 3 4 5 5 5 4 3 3 3 3 3 3 3 3 3 3 3 3 3 3 3 3 3 4 5 5 4 4
17 15 16 17 13 10 8 5 4 3 3 3 3 3 3 3 3 4 4 4 3 3 3 3 3 3 3 3 3 3 3 3 3 3 3 3 3 3 4 5 6 5 4
12 11 11 11 9 7 7 6 4 3 3 3 3 3 3 3 3 3 3 3 3 3 3 3 3 3 3 3 3 3 3 3 3 3 3 3 3 3 3 4 5 4 4
7 6 6 6 5 5 5 5 4 3 3 3 3 3 3 3 3 3 3 3 3 3 3 3 3 3 3 3 3 3 3 3 3 3 3 4 6 6 4 3 3 3 3
4 4 3 3 3 3 3 4 3 3 3 3 3 3 3 3 3 3 3 3 3 3 3 3 3 3 3 3 3 3 3 3 3 3 4 8 14 13 8 4 3 3 3
3 3 3 3 3 3 3 3 3 3 3 3 3 3 3 3 3 3 3 3 3 3 3 3 3 3 3 3 3 3 3 3 3 3 6 14 24 23 14 8 5 4 3
4 4 3 3 3 3 3 3 2 3 3 3 3 3 3 3 3 3 3 3 3 3 3 3 3 3 3 3 3 3 3 3 3 3 8 18 27 28 22 15 10 8 8
10 6 4 3 3 3 3 3 3 3 3 3 3 3 3 3 3 3 3 3 3 3 3 3 3 3 3 2 2 2 3 3 3 4 8 18 27 30 28 23 18 16 16
17 11 5 3 3 3 3 3 3 3 3 3 3 3 3 3 3 3 3 3 3 3 3 3 3 2 1 1 1 1 1 2 2 3 7 17 25 28 27 24 21 18 18
21 14 6 3 3 3 3 3 3 3 3 3 3 3 3 3 3 3 3 3 3 3 2 2 1 1 0 0 0 0 0 1 1 2 6 14 20 21 19 18 16 15 14
21 17 12 10 7 4 4 4 3 3 3 3 3 3 3 3 3 3 3 3 3 1 1 1 0 0 0 0 0 0 0 0 0 1 6 12 16 15 13 12 12 11 10
19 19 22 22 13 7 6 5 4 3 3 3 3 3 3 3 3 3 4 3 2 1 0 0 0 0 0 0 0 0 0 0 0 1 6 12 14 12 12 12 12 12 9
16 17 26 30 21 13 11 7 4 4 3 3 3 3 3 3 3 4 4 4 3 1 1 0 0 0 0 0 0 0 0 0 0 1 6 12 14 12 12 14 16 16 15
19 18 26 37 37 33 26 15 8 6 5 5 5 4 3 3 3 4 5 5 3 3 2 2 2 1 0 0 0 0 0 0 0 1 6 12 15 14 15 18 21 21 21
40 36 40 55 65 67 56 35 23 21 18 16 13 9 7 8 11 14 13 10 7 9 11 12 10 7 5 3 3 2 1 0 1 3 6 11 17 19 20 21 23 24 23
72 69 70 79 88 89 76 57 48 47 45 42 37 30 22 24 31 33 30 25 24 26 28 26 22 20 16 12 10 8 6 5 8 12 14 13 16 19 21 21 22 20 18
94 93 92 94 97 95 81 70 66 69 71 73 70 58 44 43 48 52 51 48 48 47 43 39 35 33 29 23 21 18 16 16 21 26 27 22 16 15 16 17 17 14 11
99 99 98 98 99 97 89 82 80 82 88 91 88 76 61 55 56 61 64 62 59 54 49 43 39 36 33 29 26 24 22 22 24 28 29 25 17 12 11 12 12 10 7
100 100 99 99 100 99 97 95 93 94 94 92 87 78 68 60 57 59 61 57 51 47 42 36 31 28 26 23 19 17 17 16 17 18 18 16 12 8 7 7 8 7 5
99 100 100 100 100 100 100 99 97 94 89 83 79 72 62 53 46 44 43 39 34 30 27 22 18 15 14 11 7 7 7 7 7 8 7 6 5 5 4 5 5 5 4
98 99 100 100 100 100 100 98 94 87 79 69 61 53 43 33 26 23 21 19 15 12 11 10 7 5 4 3 2 1 2 2 2 2 2 2 2 2 2 3 3 3 3
98 99 100 100 100 100 98 94 88 79 66 51 38 28 20 13 10 8 7 5 3 2 2 2 1 0 0 0 0 0 0 0 1 0 0 1 1 1 1 1 2 2 1
99 100 100 100 99 97 94 87 77 66 50 33 20 12 6 3 2 1 1 0 0 0 0 0 1 0 0 0 0 0 0 0 0 0 0 0 0 0 0 0 1 1 0
97 98 98 96 94 91 87 80 70 55 39 23 12 5 2 0 0 0 0 0 0 0 0 0 0 0 0 0 0 0 0 0 0 0 0 0 0 0 0 0 0 0 0
89 88 86 83 80 77 75 72 64 50 33 18 7 1 0 0 0 0 0 0 0 0 0 0 0 0 0 0 0 0 0 0 0 0 0 0 0 0 0 0 0 0 0
80 76 72 70 67 64 63 62 58 45 29 13 4 0 0 0 0 0 0 0 0 0 0 0 0 0 0 0 0 0 0 0 0 0 0 0 0 0 0 0 0 0 0

GEFSSE_con_probscp_042.txt.gz
Probability
0 5 19 33 42 46 46 38 27 20 17 13 9 11 19 28 36 38 33 25 17 10 5 2 1 0 0 0 0 0 0 0 1 2 1 0 0 1 3 4 3 2 3
1 5 16 27 32 36 36 32 25 19 14 10 7 8 15 22 27 29 25 17 10 6 3 1 0 0 0 0 0 0 0 0 1 1 1 0 0 1 2 3 2 2 3
2 4 9 16 19 21 21 19 16 11 7 5 3 3 6 10 13 14 13 8 4 1 0 0 0 0 0 0 0 0 0 0 0 0 0 0 0 0 1 1 1 1 1
2 2 4 6 8 9 8 7 6 4 2 1 0 0 0 2 4 6 5 3 1 0 0 0 0 0 0 0 0 0 0 0 0 0 0 0 0 0 0 0 0 0 0
1 0 1 1 2 2 2 1 1 0 0 0 0 0 0 0 1 3 3 1 1 0 0 0 0 0 0 0 0 0 0 0 0 0 0 0 0 0 0 0 0 0 0
0 0 0 0 0 0 0 0 0 0 0 0 0 0 0 0 0 1 1 0 0 0 0 0 0 0 0 0 0 0 0 0 0 0 0 0 0 0 1 1 1 1 0
0 0 0 1 0 0 0 0 0 0 0 0 0 0 0 0 0 0 0 0 0 0 0 0 0 0 0 0 0 0 0 0 0 0 0 0 1 2 3 3 4 4 3
0 0 0 0 0 0 0 0 0 0 0 0 0 0 0 0 0 0 0 0 0 0 0 0 0 0 0 0 0 0 0 0 0 0 0 0 4 9 11 12 13 12 10
0 0 0 0 0 0 0 0 0 0 0 0 0 0 0 0 0 0 0 0 0 0 0 0 0 0 0 0 0 0 0 0 0 0 0 2 8 16 20 21 20 18 17
0 0 0 1 1 1 0 0 0 0 0 0 0 0 0 0 0 0 0 0 0 0 0 0 0 0 0 0 0 0 0 0 0 0 0 4 10 17 20 21 19 17 16
1 1 1 2 2 2 1 0 0 0 0 0 0 0 0 0 0 0 0 0 0 0 0 0 0 0 0 0 0 0 0 0 0 0 1 5 10 12 13 14 16 16 15
5 4 3 3 3 2 1 0 0 0 0 0 0 0 0 0 0 0 0 0 0 0 0 0 0 0 0 0 0 0 0 0 0 0 2 7 10 10 9 11 14 16 17
15 12 8 5 4 3 2 1 0 0 0 0 0 0 0 0 0 0 0 0 0 0 0 0 0 0 0 0 0 0 0 0 0 0 3 12 18 18 17 16 16 18 20
35 28 19 11 7 5 4 3 1 0 0 0 0 0 0 0 0 0 0 0 0 0 0 0 0 0 0 0 0 0 0 0 0 0 5 17 29 32 29 24 20 22 25
60 51 39 28 17 11 8 5 3 1 0 0 0 0 0 0 0 0 0 0 0 0 0 0 0 0 0 0 0 0 0 0 0 0 4 18 34 43 42 35 31 32 34
77 71 61 50 37 25 16 11 7 3 1 0 0 0 0 0 0 0 0 0 0 0 0 0 0 0 0 0 0 0 0 0 0 0 2 12 29 42 46 46 46 45 42
84 80 75 71 62 48 33 24 18 11 6 4 2 2 2 2 2 2 1 0 0 0 0 0 0 0 0 0 0 0 0 0 0 0 0 4 13 25 38 48 54 51 45
85 83 81 83 82 70 55 45 38 29 21 14 9 7 7 7 6 4 2 0 0 0 0 0 0 0 0 0 0 0 0 0 0 0 0 0 2 9 21 36 47 47 41
83 83 84 87 89 83 74 66 59 48 35 24 16 12 12 11 7 4 1 0 0 0 0 0 0 0 0 0 0 0 0 0 0 0 0 0 0 2 7 17 27 31 30
81 84 85 87 90 89 84 77 69 54 36 23 15 12 12 11 6 2 0 0 0 0 0 0 0 0 0 0 0 0 0 0 0 0 0 0 0 0 1 3 7 12 14
84 86 88 90 92 91 87 78 64 45 26 15 10 7 7 6 4 1 0 0 0 0 0 0 0 0 0 0 0 0 0 0 0 0 0 0 0 0 0 0 0 1 2
88 90 91 93 94 90 82 69 50 29 14 8 5 2 2 1 1 0 0 0 0 0 0 0 0 0 0 0 0 0 0 0 0 0 0 0 0 0 0 0 0 0 0
90 90 91 91 90 83 70 54 34 16 7 4 2 0 0 0 0 0 0 0 0 0 0 0 0 0 0 0 0 0 0 0 0 0 0 0 0 0 0 0 0 0 0
89 87 87 85 78 67 55 39 23 10 4 2 1 0 0 0 0 0 0 0 0 0 0 0 0 0 0 0 0 0 0 0 0 0 0 0 0 0 0 0 0 0 0
87 83 77 69 57 46 35 23 11 4 2 1 0 0 0 0 0 0 0 0 0 0 0 0 0 0 0 0 0 0 0 0 0 0 0 0 0 0 0 0 0 0 0
86 79 66 53 41 30 20 11 5 1 0 0 0 0 0 0 0 0 0 0 0 0 0 0 0 0 0 0 0 0 0 0 0 0 0 0 0 0 0 0 0 0 0

GEFSSE_con_probscp_048.txt.gz
Probability
0 1 3 4 4 3 3 5 11 20 29 37 45 50 51 47 38 25 13 8 6 3 1 0 0 0 0 0 0 0 0 0 0 0 0 0 0 0 0 0 0 0 0
0 1 3 5 5 4 4 5 8 13 19 24 30 35 39 40 38 27 16 11 9 6 2 0 0 0 0 0 0 0 0 0 0 0 0 0 0 0 0 0 0 0 0
0 1 3 5 6 5 4 3 3 5 7 10 13 17 21 25 27 22 15 11 9 5 2 0 0 0 0 0 0 0 0 0 0 0 0 0 0 0 0 0 0 0 0
0 0 2 4 6 5 3 1 1 1 2 3 4 5 7 9 11 10 8 6 5 2 0 0 0 0 0 0 0 0 0 0 0 0 0 0 0 0 0 0 0 0 0
1 0 1 4 5 4 3 1 0 0 0 0 0 0 1 1 2 2 2 2 1 0 0 0 0 0 0 0 0 0 0 0 0 0 0 0 0 0 0 0 0 0 0
2 1 3 5 5 4 3 2 0 0 0 0 0 0 0 0 0 0 0 0 0 0 0 0 0 0 0 0 0 0 0 0 0 0 0 0 0 0 0 0 0 0 0
5 3 4 7 6 4 4 4 2 1 1 0 0 0 0 0 0 0 0 0 0 0 0 0 0 0 0 0 0 0 0 0 0 0 0 0 0 0 0 0 0 0 0
6 4 4 6 7 5 5 4 3 1 0 0 0 0 0 0 0 0 0 0 0 0 0 0 0 0 0 0 0 0 0 0 0 0 0 0 0 1 1 1 1 1 0
5 3 2 4 5 4 4 4 3 1 0 0 0 0 0 0 0 0 0 0 0 0 0 0 0 0 0 0 0 0 0 0 0 0 0 0 1 2 3 3 3 2 1
3 1 1 2 2 2 2 3 2 0 0 0 0 0 0 0 0 0 0 0 0 0 0 0 0 0 0 0 0 0 1 0 0 0 0 1 3 4 5 6 5 3 3
2 1 0 1 1 1 3 3 1 0 0 0 0 0 0 0 0 0 0 0 0 0 0 0 0 0 0 0 0 0 0 0 0 0 1 3 5 5 6 7 6 4 3
3 2 1 1 2 3 5 5 2 1 0 0 0 0 0 0 0 0 0 0 0 0 0 0 0 0 0 0 0 0 0 0 0 0 1 4 6 8 9 9 8 6 5
2 2 1 2 4 6 6 6 5 3 2 1 0 0 0 0 0 0 0 0 0 0 0 0 0 0 0 0 0 0 0 0 0 0 1 4 8 10 11 11 12 10 9
1 1 0 2 5 7 8 8 6 5 4 3 1 0 0 0 0 0 0 0 0 0 0 0 0 0 0 0 0 0 0 0 0 0 1 5 9 11 12 14 15 15 15
1 1 1 3 7 10 11 11 9 7 6 5 2 0 0 0 0 0 0 0 0 0 0 0 0 0 0 0 0 0 0 0 0 0 1 5 10 14 15 18 20 21 20
6 5 5 7 12 15 14 14 13 9 6 5 2 0 0 0 0 0 0 0 0 0 0 0 0 0 0 0 0 0 0 0 0 0 0 3 7 13 17 23 27 26 25
18 14 12 14 17 18 16 15 14 10 6 3 1 0 0 0 0 0 0 0 0 0 0 0 0 0 0 0 0 0 0 0 0 0 0 1 3 7 13 20 25 26 26
38 33 28 26 27 26 21 17 15 10 6 4 2 1 1 0 0 0 0 0 0 0 0 0 0 0 0 0 0 0 0 0 0 0 0 0 0 2 5 10 15 18 19
62 58 53 48 48 45 35 24 16 11 9 7 5 2 1 1 1 1 0 0 0 0 0 0 0 0 0 0 0 0 0 0 0 0 0 0 0 0 1 2 5 7 9
76 76 75 75 73 68 55 38 24 16 13 11 8 5 3 3 2 1 0 0 0 0 0 0 0 0 0 0 0 0 0 0 0 0 0 0 0 0 0 0 1 1 2
78 81 86 89 88 83 71 51 31 20 15 13 9 6 4 3 2 1 0 0 0 0 0 0 0 0 0 0 0 0 0 0 0 0 0 0 0 0 0 0 0 0 0
66 74 83 88 88 82 68 47 26 15 11 8 6 4 2 1 0 0 0 0 0 0 0 0 0 0 0 0 0 0 0 0 0 0 0 0 0 0 0 0 0 0 0
48 60 73 78 75 64 49 31 15 7 4 3 2 1 0 0 0 0 0 0 0 0 0 0 0 0 0 0 0 0 0 0 0 0 0 0 0 0 0 0 0 0 0
37 49 61 62 54 42 30 20 11 5 2 0 0 0 0 0 0 0 0 0 0 0 0 0 0 0 0 0 0 0 0 0 0 0 0 0 0 0 0 0 0 0 0
37 43 48 45 35 26 19 14 9 4 1 0 0 0 0 0 0 0 0 0 0 0 0 0 0 0 0 0 0 0 0 0 0 0 0 0 0 0 0 0 0 0 0
39 40 40 34 25 17 14 11 6 2 0 0 0 0 0 0 0 0 0 0 0 0 0 0 0 0 0 0 0 0 0 0 0 0 0 0 0 0 0 0 0 0 0

GEFSSE_con_probscp_054.txt.gz
Probability
0 1 0 0 0 0 0 2 5 8 8 6 4 3 3 4 5 6 5 4 4 2 1 0 0 0 0 0 0 0 0 0 0 0 0 0 0 0 0 0 0 0 0
1 1 0 0 0 0 1 3 6 9 10 9 7 6 5 6 6 6 5 4 3 2 1 0 0 0 0 0 0 0 0 0 0 0 0 0 0 0 0 0 0 0 0
0 0 0 0 0 0 1 2 5 7 9 10 10 8 7 8 7 5 4 2 1 1 0 0 0 0 0 0 0 0 0 0 0 0 0 0 0 0 0 0 0 0 0
0 0 0 0 0 0 0 1 2 3 4 6 7 7 6 7 7 4 2 1 0 0 0 0 0 0 0 0 0 0 0 0 0 0 0 0 0 0 0 0 0 0 0
0 0 0 0 0 0 0 0 0 0 1 3 4 4 4 5 4 3 1 0 0 0 0 0 0 0 0 0 0 0 0 0 0 0 0 0 0 0 0 0 0 0 0
0 0 0 0 0 0 0 0 0 0 0 2 2 2 3 3 3 1 0 0 0 0 0 0 0 0 0 0 0 0 0 0 0 0 0 0 0 0 0 0 0 0 0
0 0 0 0 0 0 0 0 0 0 0 1 2 2 2 2 2 1 0 0 0 0 0 0 0 0 0 0 0 0 0 0 0 0 0 0 1 1 1 0 0 0 0
0 0 0 1 1 1 0 0 0 0 0 1 1 1 1 1 1 0 0 0 0 0 0 0 0 0 0 0 0 0 0 0 0 0 0 1 2 2 1 0 0 0 0
0 0 1 1 0 0 0 0 0 0 0 0 0 0 0 0 0 0 0 0 0 0 0 0 0 0 0 0 0 0 0 0 0 0 0 1 1 1 0 0 0 0 0
0 1 1 1 0 0 0 0 0 0 0 0 0 0 0 0 0 0 0 0 0 0 0 0 0 0 0 0 0 0 0 0 0 0 1 2 2 1 1 0 1 2 2
0 1 1 1 0 0 0 0 0 0 0 0 0 0 0 0 0 0 0 1 0 0 0 0 1 1 0 0 0 0 0 0 0 1 4 5 5 4 2 2 2 3 3
0 0 0 0 0 0 0 0 0 0 0 0 0 0 0 0 0 0 0 1 0 0 0 1 2 1 0 0 0 0 0 0 0 1 4 7 8 7 6 5 4 4 3
0 0 0 0 0 0 0 0 0 0 0 0 0 0 0 0 0 0 1 2 1 1 0 1 1 1 0 0 0 0 0 0 0 0 3 7 9 10 10 8 6 5 5
0 0 0 0 0 0 0 0 0 1 1 2 2 2 1 1 1 1 3 4 4 3 2 1 1 0 0 0 0 0 0 0 0 0 1 6 10 12 11 9 8 9 10
1 1 1 1 3 3 3 2 1 2 4 5 6 5 4 4 5 6 8 8 6 6 6 4 2 1 0 0 0 1 1 0 0 0 1 4 9 11 11 10 10 12 14
8 7 6 8 11 12 9 7 5 7 8 9 10 10 9 9 11 14 17 16 13 12 11 8 5 2 1 0 0 1 1 0 0 0 0 2 5 9 10 11 12 14 16
23 20 18 18 21 22 20 17 15 15 15 14 14 15 15 16 20 25 28 28 25 22 19 13 7 4 2 1 1 1 1 0 0 0 0 1 2 5 6 7 10 12 15
44 42 37 33 35 36 36 33 29 27 27 25 23 24 25 25 30 37 41 42 39 33 27 20 11 7 5 4 3 2 1 0 0 0 0 1 1 1 1 2 4 6 9
66 64 59 56 57 58 57 53 48 45 45 42 39 37 36 34 37 44 48 48 44 37 29 20 13 9 7 4 3 2 1 0 0 0 0 1 1 0 0 0 0 2 3
80 80 79 79 80 79 76 71 65 59 55 50 46 42 38 35 36 38 40 40 37 31 23 15 9 6 4 3 2 1 0 0 0 0 0 0 0 0 0 0 0 1 1
88 89 91 93 94 91 86 80 71 60 51 44 38 32 29 28 29 27 25 24 23 20 15 9 4 2 1 1 1 0 0 0 0 0 0 0 0 0 0 0 0 0 0
88 91 95 97 97 94 86 75 63 52 43 35 28 22 20 20 19 16 13 13 12 11 8 4 1 0 0 0 0 0 0 0 0 0 0 0 0 0 0 0 0 0 0
83 87 93 96 96 92 81 66 54 45 37 31 24 17 12 11 9 7 6 7 6 5 3 1 0 0 0 0 0 0 0 0 0 0 0 0 0 0 0 0 0 0 0
80 85 91 93 92 86 74 60 51 43 35 27 19 11 7 5 4 2 2 3 3 1 1 0 0 0 0 0 0 0 0 0 0 0 0 0 0 0 0 0 0 0 0
80 83 87 87 82 73 64 56 47 39 30 21 12 7 4 4 2 1 0 1 1 0 0 0 0 0 0 0 0 0 0 0 0 0 0 0 0 0 0 0 0 0 0
79 80 82 80 70 60 55 50 42 33 24 15 8 4 2 3 2 1 0 0 0 0 0 0 0 0 0 0 0 0 0 0 0 0 0 0 0 0 0 0 0 0 0